Location: Newark
(45.5000°N, 11.4167°E)
Time: 10:22:06
(UTC+00:00)

Vanguard 3 - Pass Details

Date: 27 August 2019
Orbit: 508 x 3263 km, 33.4° (Epoch: 14 September)

Event Time Altitude Azimuth Distance (km) Brightness Sun altitude
Rises 16:55:00 0° 253° (WSW) 4,878 12.6 10.8°
Reaches altitude 10° 16:59:23 10° 244° (WSW) 3,383 11.5 10.0°
Maximum altitude 17:05:44 27° 190° (S) 1,726 9.0 8.9°
Drops below altitude 10° 17:10:00 10° 133° (SE) 2,205 8.9 8.1°
Sets 17:12:15 0° 119° (ESE) 2,920 9.4 7.7°
